Weather History for Bentonville, AR

Change the Weather History Date:

Saturday, January 18, 2014

  Actual Average Record
Temperature  
Mean Temperature 40 °F -  
Max Temperature 55 °F 43 °F 65 °F (1986)
Min Temperature 24 °F 23 °F -3 °F (1977)
Degree Days  
Heating Degree Days 26    
Moisture  
Dew Point 19 °F    
Average Humidity 42    
Maximum Humidity 59    
Minimum Humidity 28    
Precipitation  
Precipitation 0.00 in - - ()
Sea Level Pressure  
Sea Level Pressure 29.96 in    
Wind  
Wind Speed 11 mph (West)    
Max Wind Speed 28 mph    
Max Gust Speed 36 mph    
Visibility 10 miles    
Events      
Averages and records for this station are not official NWS values.
T = Trace of Precipitation, MM = Missing Value Source: NWS Daily Summary

Daily Weather History Graph

Daily Weather History Graph

Search for Another Location

Airport:

Trip Planner

Search our weather history database for the weather conditions in past years. The results will help you decide how hot, cold, wet, or windy it might be!

Date:

Astronomy

Jan. 18, 2014 Rise Set
Actual Time 7:26 AM CST 5:28 PM CST
Civil Twilight 6:58 AM CST 5:56 PM CST
Nautical Twilight 6:27 AM CST 6:27 PM CST
Astronomical Twilight 5:56 AM CST 6:58 PM CST
Moon 8:05 PM CST (1/18) 8:31 AM CST (1/18)
Length of Visible Light 10h 57m
Length of Day
10h 01m
Waning Gibbous, 94% of the Moon is Illuminated
Jan 18
Waning Gibbous
Jan 23
Last Quarter
Jan 30
New
Feb 6
First Quarter
Feb 14
Full

Hourly Weather History & Observations

Time (CST) Temp. Windchill Dew Point Humidity Pressure Visibility Wind Dir Wind Speed Gust Speed Precip Events Conditions
12:15 AM 24.8 °F 20.5 °F 10.4 °F 54% 30.08 in 10.0 mi South 3.5 mph - N/A   Clear
12:35 AM 24.8 °F 17.9 °F 10.4 °F 54% 30.06 in 10.0 mi South 5.8 mph - N/A   Clear
12:55 AM 24.8 °F 19.1 °F 10.4 °F 54% 30.05 in 10.0 mi South 4.6 mph - N/A   Clear
1:15 AM 26.6 °F 20.0 °F 10.4 °F 51% 30.04 in 10.0 mi South 5.8 mph - N/A   Clear
1:35 AM 26.6 °F 20.0 °F 10.4 °F 51% 30.04 in 10.0 mi South 5.8 mph - N/A   Clear
1:55 AM 26.6 °F 20.0 °F 12.2 °F 55% 30.04 in 10.0 mi South 5.8 mph - N/A   Clear
2:15 AM 26.6 °F 20.0 °F 12.2 °F 55% 30.04 in 10.0 mi SSE 5.8 mph - N/A   Clear
2:35 AM 26.6 °F 19.1 °F 12.2 °F 55% 30.03 in 10.0 mi South 6.9 mph - N/A   Clear
2:55 AM 26.6 °F 19.1 °F 12.2 °F 55% 30.02 in 10.0 mi South 6.9 mph - N/A   Partly Cloudy
3:15 AM 26.6 °F 19.1 °F 12.2 °F 55% 30.01 in 10.0 mi South 6.9 mph - N/A   Clear
3:35 AM 28.4 °F 20.4 °F 15.8 °F 59% 30.00 in 10.0 mi South 8.1 mph - N/A   Mostly Cloudy
3:55 AM 30.2 °F 21.3 °F 14.0 °F 51% 29.98 in 10.0 mi South 10.4 mph - N/A   Mostly Cloudy
4:15 AM 30.2 °F 22.6 °F 14.0 °F 51% 29.97 in 10.0 mi South 8.1 mph - N/A   Partly Cloudy
4:35 AM 30.2 °F 22.6 °F 14.0 °F 51% 29.96 in 10.0 mi SSW 8.1 mph - N/A   Clear
4:55 AM 32.0 °F 24.8 °F 14.0 °F 48% 29.96 in 10.0 mi SSW 8.1 mph - N/A   Clear
5:15 AM 32.0 °F 25.6 °F 14.0 °F 48% 29.95 in 10.0 mi SSW 6.9 mph - N/A   Clear
5:35 AM 32.0 °F 23.6 °F 14.0 °F 48% 29.94 in 10.0 mi SSW 10.4 mph - N/A   Clear
5:55 AM 33.8 °F 25.3 °F 15.8 °F 48% 29.93 in 10.0 mi SW 11.5 mph - N/A   Clear
6:15 AM 35.6 °F 25.9 °F 15.8 °F 44% 29.93 in 10.0 mi SW 16.1 mph 21.9 mph N/A   Clear
6:35 AM 35.6 °F 27.1 °F 15.8 °F 44% 29.92 in 10.0 mi SW 12.7 mph 17.3 mph N/A   Partly Cloudy
6:55 AM 35.6 °F 26.6 °F 15.8 °F 44% 29.92 in 10.0 mi SW 13.8 mph - N/A   Mostly Cloudy
7:15 AM 37.4 °F 29.3 °F 15.8 °F 41% 29.91 in 10.0 mi SW 12.7 mph 21.9 mph N/A   Partly Cloudy
7:35 AM 37.4 °F 29.3 °F 15.8 °F 41% 29.90 in 10.0 mi SW 12.7 mph - N/A   Clear
7:55 AM 37.4 °F 28.2 °F 15.8 °F 41% 29.89 in 10.0 mi SW 16.1 mph 24.2 mph N/A   Clear
8:15 AM 37.4 °F 29.3 °F 15.8 °F 41% 29.89 in 10.0 mi SW 12.7 mph 20.7 mph N/A   Clear
8:35 AM 39.2 °F 30.5 °F 17.6 °F 42% 29.89 in 10.0 mi SW 16.1 mph 21.9 mph N/A   Clear
8:55 AM 39.2 °F 30.5 °F 17.6 °F 42% 29.89 in 10.0 mi SW 16.1 mph 19.6 mph N/A   Clear
9:15 AM 41.0 °F 32.5 °F 17.6 °F 39% 29.89 in 10.0 mi SW 17.3 mph 23.0 mph N/A   Clear
9:35 AM 42.8 °F 35.1 °F 19.4 °F 39% 29.89 in 10.0 mi WSW 16.1 mph 21.9 mph N/A   Clear
9:55 AM 44.6 °F 37.2 °F 19.4 °F 37% 29.89 in 10.0 mi WSW 17.3 mph 25.3 mph N/A   Clear
10:15 AM 46.4 °F 39.8 °F 21.2 °F 37% 29.90 in 10.0 mi WSW 16.1 mph 23.0 mph N/A   Clear
10:35 AM 46.4 °F 40.4 °F 19.4 °F 34% 29.89 in 10.0 mi WSW 13.8 mph 26.5 mph N/A   Clear
10:55 AM 48.2 °F - 21.2 °F 34% 29.89 in 10.0 mi West 17.3 mph 24.2 mph N/A   Clear
11:15 AM 48.2 °F - 21.2 °F 34% 29.89 in 10.0 mi West 17.3 mph 25.3 mph N/A   Clear
11:35 AM 50.0 °F - 21.2 °F 32% 29.87 in 10.0 mi WNW 17.3 mph 20.7 mph N/A   Clear
11:55 AM 51.8 °F - 23.0 °F 33% 29.86 in 10.0 mi WNW 17.3 mph 24.2 mph N/A   Clear
12:15 PM 51.8 °F - 23.0 °F 33% 29.86 in 10.0 mi NW 18.4 mph 26.5 mph N/A   Clear
12:35 PM 51.8 °F - 24.8 °F 35% 29.85 in 10.0 mi WNW 17.3 mph 26.5 mph N/A   Clear
12:55 PM 53.6 °F - 24.8 °F 33% 29.84 in 10.0 mi WNW 11.5 mph 21.9 mph N/A   Clear
1:15 PM 53.6 °F - 24.8 °F 33% 29.83 in 10.0 mi WNW 13.8 mph 26.5 mph N/A   Clear
1:35 PM 53.6 °F - 23.0 °F 30% 29.83 in 10.0 mi WNW 24.2 mph 29.9 mph N/A   Clear
1:55 PM 53.6 °F - 24.8 °F 33% 29.84 in 10.0 mi WNW 27.6 mph 35.7 mph N/A   Clear
2:15 PM 53.6 °F - 24.8 °F 33% 29.84 in 10.0 mi WNW 26.5 mph 34.5 mph N/A   Clear
2:35 PM 55.4 °F - 24.8 °F 31% 29.84 in 10.0 mi WNW 15.0 mph 29.9 mph N/A   Scattered Clouds
2:55 PM 55.4 °F - 23.0 °F 29% 29.86 in 10.0 mi NW 23.0 mph 31.1 mph N/A   Partly Cloudy
3:15 PM 53.6 °F - 23.0 °F 30% 29.87 in 10.0 mi NNW 20.7 mph 33.4 mph N/A   Clear
3:35 PM 53.6 °F - 21.2 °F 28% 29.89 in 10.0 mi NW 15.0 mph 26.5 mph N/A   Partly Cloudy
3:55 PM 53.6 °F - 21.2 °F 28% 29.90 in 10.0 mi NW 23.0 mph 35.7 mph N/A   Partly Cloudy
4:15 PM 51.8 °F - 21.2 °F 30% 29.91 in 10.0 mi NW 17.3 mph 35.7 mph N/A   Clear
4:35 PM 51.8 °F - 21.2 °F 30% 29.92 in 10.0 mi NW 19.6 mph 34.5 mph N/A   Partly Cloudy
4:55 PM 50.0 °F - 21.2 °F 32% 29.94 in 10.0 mi NW 17.3 mph 31.1 mph N/A   Partly Cloudy
5:15 PM 48.2 °F - 21.2 °F 34% 29.95 in 10.0 mi NW 15.0 mph 24.2 mph N/A   Clear
5:35 PM 48.2 °F - 19.4 °F 32% 29.95 in 10.0 mi NW 13.8 mph 24.2 mph N/A   Clear
5:55 PM 46.4 °F 39.2 °F 21.2 °F 37% 29.97 in 10.0 mi NW 18.4 mph 25.3 mph N/A   Clear
6:15 PM 46.4 °F 40.1 °F 21.2 °F 37% 29.98 in 10.0 mi NW 15.0 mph 21.9 mph N/A   Partly Cloudy
6:35 PM 46.4 °F 39.8 °F 21.2 °F 37% 29.99 in 10.0 mi NW 16.1 mph 20.7 mph N/A   Clear
6:55 PM 46.4 °F 39.0 °F 21.2 °F 37% 30.00 in 10.0 mi NW 19.6 mph 26.5 mph N/A   Clear
7:15 PM 44.6 °F 37.8 °F 21.2 °F 39% 30.00 in 10.0 mi NW 15.0 mph 23.0 mph N/A   Clear
7:35 PM 44.6 °F 37.4 °F 21.2 °F 39% 30.01 in 10.0 mi NW 16.1 mph 21.9 mph N/A   Clear
7:55 PM 44.6 °F 37.8 °F 21.2 °F 39% 30.02 in 10.0 mi NW 15.0 mph 20.7 mph N/A   Clear
8:15 PM 42.8 °F 35.4 °F 21.2 °F 42% 30.02 in 10.0 mi NW 15.0 mph 21.9 mph N/A   Clear
8:35 PM 42.8 °F 35.8 °F 21.2 °F 42% 30.03 in 10.0 mi NW 13.8 mph 25.3 mph N/A   Clear
8:55 PM 42.8 °F 36.2 °F 21.2 °F 42% 30.03 in 10.0 mi NW 12.7 mph 20.7 mph N/A   Clear
9:15 PM 41.0 °F 33.5 °F 21.2 °F 45% 30.04 in 10.0 mi NW 13.8 mph - N/A   Clear
9:35 PM 41.0 °F 33.9 °F 21.2 °F 45% 30.05 in 10.0 mi WNW 12.7 mph 23.0 mph N/A   Clear
9:55 PM 39.2 °F 31.2 °F 21.2 °F 49% 30.05 in 10.0 mi NW 13.8 mph 20.7 mph N/A   Clear
10:15 PM 39.2 °F 31.2 °F 21.2 °F 49% 30.06 in 10.0 mi NW 13.8 mph 20.7 mph N/A   Clear
10:35 PM 39.2 °F 31.6 °F 21.2 °F 49% 30.07 in 10.0 mi NW 12.7 mph 24.2 mph N/A   Clear
10:55 PM 39.2 °F 32.0 °F 21.2 °F 49% 30.08 in 10.0 mi NW 11.5 mph 24.2 mph N/A   Clear
11:15 PM 39.2 °F 29.8 °F 19.4 °F 45% 30.09 in 10.0 mi NNW 18.4 mph 24.2 mph N/A   Clear
11:35 PM 37.4 °F 28.5 °F 19.4 °F 48% 30.09 in 10.0 mi NNW 15.0 mph 21.9 mph N/A   Clear
11:55 PM 35.6 °F 25.9 °F 17.6 °F 48% 30.08 in 10.0 mi NNW 16.1 mph 25.3 mph N/A   Clear